Startpagina
METAR-TAF:

METAR-TAF

Vliegvelden :

Militair vliegvled

Meppen, Duitsland

breedte: 52-43-24N, lengte: 007-19-35E, hoogte: 21 m

Actueel weer

Dit bericht is 31 minuten geleden gemaakt, om 17:20 UTC
Wind 2 kt uit het zuidoosten
Temperatuur 10°C
Vochtigheid 62%
Druk 1018 hPa
Zicht 10 km of meer

METAR: ETWM 171720Z AUTO 14002KT 9999 // ////// 10/03 Q1018 ///

Tijdstip: 18:51 (17:51 UTC)


TAF: ontbreekt

Waarnemingen en weersverwachtingen van meer dan 4000 vliegvelden (METAR en TAF).

De beschikbare stations zijn de gele en rode punten op de kaart.

Ga met uw muis naar het station om de naam te zien.

Klik dan om waarnemingen en weersverwachtingen te zien.

kaart wijzigen: klik op de groene knoppen met een zwart kruis om in te zoomen, op de groene knop met een streepje om uit te zoomen of op de groene pijlen voor aangrenzende kaarten.


METAR-TAF: